Location: Colebrook
(42.0017°N, 73.0973°W)
Time: 11:12:13
(UTC-04:00)

Transit 2A Rocket - Visible Passes

Search period start: 25 October 2021 00:00
Search period end: 04 November 2021 00:00
Orbit: 584 x 918 km, 66.7° (Epoch: 24 October)

Date Brightness Start Highest point End Pass type
(mag) Time Alt. Az. Time Alt. Az. Time Alt. Az.
25 Oct 6.2 18:42:15 10° SW 18:47:17 44° NW 18:52:48 10° NNE visible
25 Oct 7.9 20:29:53 10° NW 20:31:34 11° NNW 20:33:17 10° NNW visible
26 Oct 7.7 19:44:56 10° WNW 19:48:15 16° NW 19:51:43 10° N visible
27 Oct 7.2 19:00:49 10° W 19:05:04 23° NW 19:09:35 10° N visible
28 Oct 6.7 18:17:11 10° WSW 18:22:01 34° NW 18:27:16 10° NNE visible
29 Oct 7.7 19:20:45 10° WNW 19:23:14 13° NNW 19:25:47 10° N visible
30 Oct 7.5 18:36:13 10° W 18:39:58 18° NW 18:43:54 10° N visible
01 Nov 7.8 18:57:15 10° NW 18:58:15 10° NNW 18:59:17 10° NNW visible
02 Nov 7.6 18:11:51 10° WNW 18:14:54 15° NW 18:18:05 10° N visible
